TimePDT,TemperatureF,Dew PointF,Humidity,Sea Level PressureIn,VisibilityMPH,Wind Direction,Wind SpeedMPH,Gust SpeedMPH,PrecipitationIn,Events,Conditions,WindDirDegrees,DateUTC
12:52 AM,53.1,39.9,61,30.08,10.0,SSW,10.4,-,N/A,,Overcast,210,2013-03-13 07:52:00
1:52 AM,53.1,39.9,61,30.07,10.0,SSW,11.5,-,N/A,,Scattered Clouds,210,2013-03-13 08:52:00
2:52 AM,48.9,39.9,71,30.06,10.0,SSE,9.2,-,N/A,,Partly Cloudy,160,2013-03-13 09:52:00
3:52 AM,46.9,39.0,74,30.09,10.0,South,8.1,-,N/A,,Mostly Cloudy,190,2013-03-13 10:52:00
4:52 AM,51.1,39.9,66,30.08,10.0,South,11.5,-,N/A,,Scattered Clouds,180,2013-03-13 11:52:00
5:52 AM,50.0,39.9,68,30.09,10.0,South,9.2,-,N/A,,Mostly Cloudy,180,2013-03-13 12:52:00
6:52 AM,48.0,39.0,71,30.10,10.0,SSE,8.1,-,N/A,,Clear,150,2013-03-13 13:52:00
7:52 AM,46.9,39.0,74,30.11,10.0,South,8.1,-,N/A,,Clear,170,2013-03-13 14:52:00
8:52 AM,48.0,39.9,74,30.13,10.0,SSE,4.6,-,N/A,,Clear,150,2013-03-13 15:52:00
9:52 AM,54.0,42.1,64,30.13,10.0,SSE,8.1,-,N/A,,Clear,160,2013-03-13 16:52:00
10:52 AM,57.0,42.1,57,30.14,10.0,South,9.2,-,N/A,,Clear,190,2013-03-13 17:52:00
11:52 AM,60.1,39.9,47,30.15,10.0,SSW,8.1,-,N/A,,Clear,210,2013-03-13 18:52:00
12:52 PM,63.0,41.0,45,30.14,10.0,South,12.7,-,N/A,,Clear,190,2013-03-13 19:52:00
1:52 PM,63.0,41.0,45,30.13,10.0,SSW,12.7,-,N/A,,Clear,200,2013-03-13 20:52:00
2:52 PM,63.0,41.0,45,30.13,10.0,SW,10.4,-,N/A,,Partly Cloudy,220,2013-03-13 21:52:00
3:52 PM,62.1,41.0,46,30.13,10.0,South,10.4,-,N/A,,Overcast,190,2013-03-13 22:52:00
4:52 PM,61.0,42.1,50,30.12,10.0,South,6.9,-,N/A,,Overcast,180,2013-03-13 23:52:00
5:52 PM,61.0,42.1,50,30.11,10.0,South,6.9,-,N/A,,Overcast,180,2013-03-14 00:52:00
6:52 PM,59.0,42.1,53,30.11,10.0,SSW,5.8,-,N/A,,Mostly Cloudy,200,2013-03-14 01:52:00
7:52 PM,55.0,42.1,62,30.11,10.0,SSE,5.8,-,N/A,,Clear,160,2013-03-14 02:52:00
8:52 PM,55.0,42.1,62,30.11,10.0,South,4.6,-,N/A,,Partly Cloudy,190,2013-03-14 03:52:00
9:52 PM,55.0,42.1,62,30.12,10.0,South,5.8,-,N/A,,Partly Cloudy,190,2013-03-14 04:52:00
10:52 PM,53.1,41.0,64,30.10,10.0,South,6.9,-,N/A,,Clear,180,2013-03-14 05:52:00
11:52 PM,50.0,41.0,71,30.10,10.0,SSE,4.6,-,N/A,,Clear,160,2013-03-14 06:52:00